When you browse on this site, cookies collect data to enhance your experience and personalize the content and advertising you see.
Visit our Privacy Policy to learn more. By continuing to use the site, you agree to this use of cookies and data.
  • In Belgien
  • Länderverzeichnis
  • Für 7 Tage
  • Wassertemperatur
  • Wetterkarte
  • Widgets
  • user-avatar
    Anmelden

    Stündliche Wetter Lutyancevo

    Heute, 17 August, Samstag

    Zeit Temperatur Niederschläge Wind Luftdruck Luftfeuchtigkeit
    00:00 +12°C° 0 mm 1 m/S 747 mmHg 88%
    01:00 +11°C° 0 mm 1 m/S 747 mmHg 89%
    02:00 +10°C° 0 mm 2 m/S 747 mmHg 87%
    03:00 +10°C° 0 mm 2 m/S 747 mmHg 87%
    04:00 +10°C° 0 mm 2 m/S 748 mmHg 86%
    05:00 +9°C° 0 mm 2 m/S 748 mmHg 86%
    06:00 +12°C° 0 mm 2 m/S 748 mmHg 80%
    07:00 +14°C° 0 mm 2 m/S 748 mmHg 74%
    08:00 +16°C° 0 mm 2 m/S 748 mmHg 69%
    09:00 +17°C° 0 mm 2 m/S 748 mmHg 64%
    10:00 +19°C° 0 mm 2 m/S 748 mmHg 59%
    11:00 +20°C° 0 mm 2 m/S 748 mmHg 54%
    12:00 +21°C° 0 mm 2 m/S 748 mmHg 53%
    13:00 +21°C° 0 mm 2 m/S 747 mmHg 52%
    14:00 +21°C° 0 mm 3 m/S 747 mmHg 51%
    15:00 +21°C° 0 mm 2 m/S 747 mmHg 56%
    16:00 +21°C° 0 mm 2 m/S 747 mmHg 61%
    17:00 +20°C° 0 mm 2 m/S 747 mmHg 65%
    18:00 +18°C° 0 mm 2 m/S 747 mmHg 70%
    19:00 +17°C° 0 mm 2 m/S 746 mmHg 76%
    20:00 +15°C° 0 mm 2 m/S 746 mmHg 81%
    21:00 +15°C° 0 mm 2 m/S 746 mmHg 81%
    22:00 +14°C° 0 mm 2 m/S 746 mmHg 82%
    23:00 +14°C° 0 mm 2 m/S 745 mmHg 83%

    Morgen, 18 August, Sonntag

    Zeit Temperatur Niederschläge Wind Luftdruck Luftfeuchtigkeit
    00:00 +13°C° 0 mm 3 m/S 745 mmHg 83%
    01:00 +12°C° 0 mm 3 m/S 745 mmHg 84%
    02:00 +12°C° 0 mm 3 m/S 744 mmHg 84%
    03:00 +12°C° 0 mm 3 m/S 744 mmHg 84%
    04:00 +12°C° 0 mm 3 m/S 744 mmHg 85%
    05:00 +12°C° 0 mm 3 m/S 743 mmHg 85%
    06:00 +12°C° 0.6 mm 4 m/S 743 mmHg 89%
    07:00 +12°C° 0.6 mm 4 m/S 743 mmHg 92%
    08:00 +12°C° 0.6 mm 4 m/S 742 mmHg 95%
    09:00 +12°C° 0.6 mm 4 m/S 742 mmHg 96%
    10:00 +12°C° 0.6 mm 4 m/S 742 mmHg 96%
    11:00 +13°C° 0.6 mm 4 m/S 741 mmHg 97%
    12:00 +13°C° 1.7 mm 4 m/S 741 mmHg 97%
    13:00 +13°C° 1.7 mm 4 m/S 741 mmHg 97%
    14:00 +13°C° 1.7 mm 4 m/S 741 mmHg 98%
    15:00 +13°C° 1.5 mm 4 m/S 741 mmHg 98%
    16:00 +13°C° 1.5 mm 4 m/S 741 mmHg 98%
    17:00 +13°C° 1.5 mm 4 m/S 741 mmHg 98%
    18:00 +13°C° 0.3 mm 3 m/S 741 mmHg 98%
    19:00 +13°C° 0.3 mm 3 m/S 741 mmHg 98%
    20:00 +13°C° 0.3 mm 3 m/S 741 mmHg 98%
    21:00 +13°C° 0 mm 3 m/S 742 mmHg 98%
    22:00 +13°C° 0 mm 3 m/S 742 mmHg 98%
    23:00 +13°C° 0 mm 3 m/S 742 mmHg 98%

    übermorgen, 19 August, Montag

    Zeit Temperatur Niederschläge Wind Luftdruck Luftfeuchtigkeit
    00:00 +13°C° 0 mm 3 m/S 742 mmHg 97%
    01:00 +12°C° 0 mm 3 m/S 743 mmHg 97%
    02:00 +12°C° 0 mm 3 m/S 743 mmHg 97%
    03:00 +12°C° 0 mm 3 m/S 743 mmHg 97%
    04:00 +12°C° 0 mm 2 m/S 743 mmHg 97%
    05:00 +10°C° 0 mm 2 m/S 744 mmHg 97%
    06:00 +13°C° 0 mm 2 m/S 744 mmHg 93%
    07:00 +15°C° 0 mm 2 m/S 745 mmHg 89%
    08:00 +16°C° 0 mm 2 m/S 745 mmHg 85%
    09:00 +18°C° 0 mm 2 m/S 745 mmHg 75%
    10:00 +20°C° 0 mm 3 m/S 745 mmHg 65%
    11:00 +22°C° 0 mm 3 m/S 746 mmHg 54%
    12:00 +24°C° 0 mm 3 m/S 746 mmHg 55%
    13:00 +25°C° 0 mm 3 m/S 746 mmHg 55%
    14:00 +25°C° 0 mm 3 m/S 746 mmHg 56%
    15:00 +25°C° 0 mm 3 m/S 746 mmHg 61%
    16:00 +24°C° 0 mm 2 m/S 746 mmHg 67%
    17:00 +24°C° 0 mm 2 m/S 746 mmHg 72%
    18:00 +21°C° 0 mm 2 m/S 747 mmHg 78%
    19:00 +20°C° 0 mm 2 m/S 747 mmHg 83%
    20:00 +19°C° 0 mm 2 m/S 747 mmHg 89%
    21:00 +18°C° 0 mm 2 m/S 747 mmHg 91%
    22:00 +18°C° 0 mm 2 m/S 747 mmHg 92%
    23:00 +17°C° 0 mm 2 m/S 747 mmHg 94%

    20 August, Dienstag

    Zeit Temperatur Niederschläge Wind Luftdruck Luftfeuchtigkeit
    00:00 +17°C° 0.1 mm 2 m/S 747 mmHg 95%
    01:00 +17°C° 0.1 mm 2 m/S 748 mmHg 96%
    02:00 +17°C° 0.1 mm 2 m/S 748 mmHg 97%
    03:00 +16°C° 0 mm 2 m/S 748 mmHg 97%
    04:00 +16°C° 0 mm 2 m/S 748 mmHg 98%
    05:00 +16°C° 0 mm 2 m/S 748 mmHg 98%
    06:00 +17°C° 0.1 mm 2 m/S 748 mmHg 96%
    07:00 +18°C° 0.1 mm 2 m/S 748 mmHg 94%
    08:00 +19°C° 0.1 mm 2 m/S 749 mmHg 92%
    09:00 +20°C° 0 mm 2 m/S 749 mmHg 90%
    10:00 +21°C° 0 mm 2 m/S 749 mmHg 87%
    11:00 +21°C° 0 mm 2 m/S 749 mmHg 85%
    12:00 +20°C° 0.3 mm 2 m/S 749 mmHg 89%
    13:00 +21°C° 0.3 mm 1 m/S 749 mmHg 92%
    14:00 +20°C° 0.3 mm 1 m/S 749 mmHg 95%
    15:00 +20°C° 0 mm 1 m/S 749 mmHg 91%
    16:00 +21°C° 0 mm 1 m/S 749 mmHg 87%
    17:00 +22°C° 0 mm 1 m/S 749 mmHg 82%
    18:00 +20°C° 0 mm 1 m/S 749 mmHg 87%
    19:00 +17°C° 0 mm 0 m/S 749 mmHg 91%
    20:00 +16°C° 0 mm 0 m/S 749 mmHg 95%
    21:00 +15°C° 0 mm 0 m/S 749 mmHg 95%
    22:00 +15°C° 0 mm 0 m/S 750 mmHg 95%
    23:00 +15°C° 0 mm 0 m/S 750 mmHg 95%

    21 August, Mittwoch

    Zeit Temperatur Niederschläge Wind Luftdruck Luftfeuchtigkeit
    00:00 +14°C° 0 mm 0 m/S 750 mmHg 95%
    01:00 +14°C° 0 mm 0 m/S 750 mmHg 95%
    02:00 +14°C° 0 mm 0 m/S 750 mmHg 95%
    03:00 +14°C° 0 mm 0 m/S 750 mmHg 95%
    04:00 +13°C° 0 mm 0 m/S 750 mmHg 94%
    05:00 +13°C° 0 mm 0 m/S 750 mmHg 94%
    06:00 +15°C° 0 mm 0 m/S 750 mmHg 89%
    07:00 +17°C° 0 mm 0 m/S 751 mmHg 83%
    08:00 +19°C° 0 mm 0 m/S 751 mmHg 78%
    09:00 +22°C° 0 mm 1 m/S 751 mmHg 72%
    10:00 +23°C° 0 mm 1 m/S 751 mmHg 66%
    11:00 +24°C° 0 mm 1 m/S 750 mmHg 60%
    12:00 +25°C° 0 mm 1 m/S 750 mmHg 60%
    13:00 +25°C° 0 mm 1 m/S 750 mmHg 61%
    14:00 +25°C° 0 mm 1 m/S 750 mmHg 62%
    15:00 +25°C° 0.1 mm 1 m/S 749 mmHg 69%
    16:00 +24°C° 0.1 mm 1 m/S 749 mmHg 76%
    17:00 +23°C° 0.1 mm 2 m/S 748 mmHg 84%
    18:00 +21°C° 0.1 mm 2 m/S 748 mmHg 88%
    19:00 +20°C° 0.1 mm 2 m/S 747 mmHg 93%
    20:00 +19°C° 0.1 mm 2 m/S 747 mmHg 97%
    21:00 +19°C° 0.3 mm 2 m/S 746 mmHg 97%
    22:00 +19°C° 0.3 mm 3 m/S 746 mmHg 97%
    23:00 +19°C° 0.3 mm 3 m/S 745 mmHg 98%

    22 August, Donnerstag

    Zeit Temperatur Niederschläge Wind Luftdruck Luftfeuchtigkeit
    00:00 +19°C° 0.2 mm 3 m/S 745 mmHg 97%
    01:00 +19°C° 0.2 mm 4 m/S 745 mmHg 96%
    02:00 +19°C° 0.2 mm 4 m/S 744 mmHg 95%
    03:00 +19°C° 0 mm 4 m/S 744 mmHg 96%
    04:00 +19°C° 0 mm 4 m/S 744 mmHg 96%
    05:00 +19°C° 0 mm 4 m/S 744 mmHg 96%
    06:00 +18°C° 0.2 mm 4 m/S 744 mmHg 95%
    07:00 +17°C° 0.2 mm 4 m/S 745 mmHg 94%
    08:00 +15°C° 0.2 mm 5 m/S 745 mmHg 93%
    09:00 +15°C° 0 mm 4 m/S 746 mmHg 89%
    10:00 +15°C° 0 mm 4 m/S 747 mmHg 86%
    11:00 +14°C° 0 mm 4 m/S 748 mmHg 83%
    12:00 +17°C° 0 mm 4 m/S 748 mmHg 75%
    13:00 +18°C° 0 mm 4 m/S 748 mmHg 67%
    14:00 +20°C° 0 mm 4 m/S 749 mmHg 59%
    15:00 +20°C° 0 mm 4 m/S 749 mmHg 61%
    16:00 +20°C° 0 mm 3 m/S 749 mmHg 63%
    17:00 +19°C° 0 mm 2 m/S 749 mmHg 65%
    18:00 +18°C° 0 mm 2 m/S 749 mmHg 71%
    19:00 +16°C° 0 mm 2 m/S 749 mmHg 77%
    20:00 +14°C° 0 mm 2 m/S 749 mmHg 82%
    21:00 +14°C° 0 mm 2 m/S 750 mmHg 85%
    22:00 +13°C° 0 mm 2 m/S 750 mmHg 88%
    23:00 +13°C° 0 mm 2 m/S 750 mmHg 91%
    Mehr zeigen